Location: ???? ?????
(37.9132°N, 22.9869°E)
Time: 03:05:06
(UTC+00:00)

Cosmos 2173 Rocket - Pass Details

Date: 04 August 2024
Orbit: 945 x 999 km, 82.9° (Epoch: 09 September)

Event Time Altitude Azimuth Distance (km) Brightness Sun altitude
Exits shadow 20:40:23 57° 65° (ENE) 1,117 4.2 -29.0°
Drops below altitude 10° 20:45:48 10° 14° (NNE) 2,708 6.8 -29.5°
Sets 20:48:22 0° 11° (NNE) 3,667 7.7 -29.8°
